Flag for Equatorial Guinea Weather past 2 weeks in Malabo, Equatorial Guinea

Now
82 °F

Broken clouds.


Feels Like: 88 °F
Forecast: 74 / 79 °F
Wind: 12 mph from Southwest

Location: Malabo/Fernando Poo

Current Time: Sep 1, 2015 at 3:49:43 PM

Latest Report: Sep 1, 2015 at 3:00 PM


Visibility: 5 mi

Pressure: 29.95 "Hg

Humidity: 74%

Dew point: 73 °F

Location of MalaboLocation

Historic Weather in Malabo — Graph

°F

Malabo temperature yesterday

Maximum temperature yesterday: 82 °F (at 11:00 AM)
Minimum temperature yesterday: 73 °F (at 12:00 AM)
Average temperature yesterday: 78 °F

Past Weeks' High & Low Weather Summary

 TemperatureHumidityPressure
High84 °F (Aug 28, 12:00 PM)94% (Aug 17, 3:00 PM)30.07 "Hg (Aug 17, 3:00 PM)
Low73 °F (Aug 18, 4:00 AM)70% (Aug 28, 1:00 PM)29.86 "Hg (Aug 18, 5:00 PM)
Average77 °F87%29.94 "Hg
* Reported Aug 17 12:00 Noon — Sep 1 12:00 Noon, Malabo, Weather by CustomWeather, © 2015

Note: Actual official high and low records may vary slightly from our data, if they occured in-between our weather recording intervals... More about our weather records

Advertising

Malabo weather history for previous 24 hours

 ConditionsComfort  
Time TempWeatherWind HumidityBarometerVisibility
12:00 PM
Tue, Sep 1
N/AScattered clouds.N/AN/AN/AN/A
11:00 AM82 °FPassing clouds.12 mph74%30.04 "HgN/A
10:00 AM81 °FPartly sunny.10 mph74%30.04 "HgN/A
9:00 AM79 °FPartly sunny.8 mph74%30.04 "HgN/A
8:00 AM77 °FPartly sunny.2 mph83%30.01 "HgN/A
7:00 AM75 °FPartly sunny.5 mph89%29.98 "HgN/A
6:00 AM75 °FPassing clouds.5 mph89%29.98 "HgN/A
5:00 AM75 °FPassing clouds.7 mph89%29.95 "HgN/A
4:00 AM75 °FPassing clouds.No wind89%29.95 "HgN/A
2:00 AM75 °FPassing clouds.13 mph89%29.98 "HgN/A
12:00 AM75 °FPassing clouds.No wind89%30.01 "HgN/A
11:00 PM
Mon, Aug 31
75 °FPassing clouds.10 mph89%30.01 "HgN/A
10:00 PM75 °FPassing clouds.12 mph94%30.01 "Hg5 mi
8:00 PM75 °FPassing clouds.12 mph94%29.95 "Hg4 mi
7:00 PM77 °FPartly cloudy.12 mph89%29.95 "Hg5 mi
6:00 PM77 °FBroken clouds.13 mph83%29.92 "Hg5 mi
5:00 PM77 °FDrizzle. Broken clouds.9 mph89%29.92 "Hg4 mi
4:00 PM77 °FDrizzle. Broken clouds.21 mph83%29.92 "Hg5 mi
3:00 PM81 °FPartly sunny.14 mph74%29.95 "HgN/A
Weather by CustomWeather, © 2015

See weather overviewHow to use our weather pages